Time,TemperatureF,DewpointF,PressureIn,WindDirection,WindDirectionDegrees,WindSpeedMPH,WindSpeedGustMPH,Humidity,HourlyPrecipIn,Conditions,Clouds,dailyrainin,SoftwareType,DateUTC
2013-01-31 07:02:00,24.0,17.0,29.99,SE,134,11.0,31.0,73,0.00,,,0.00,,2013-01-31 14:02:00,
2013-01-31 07:11:00,24.0,17.0,29.99,SE,134,11.0,31.0,73,0.00,,,0.00,,2013-01-31 14:11:00,
2013-01-31 07:22:00,24.0,16.0,30.00,South,183,5.0,24.0,72,0.00,,,0.00,,2013-01-31 14:22:00,
2013-01-31 07:31:00,24.0,17.0,30.03,SSW,203,5.0,28.0,73,0.00,,,0.00,,2013-01-31 14:31:00,
2013-01-31 07:42:00,24.0,17.0,30.03,SSW,203,5.0,28.0,73,0.00,,,0.00,,2013-01-31 14:42:00,
2013-01-31 07:52:00,24.0,17.0,30.03,WNW,295,11.0,27.0,73,0.00,,,0.00,,2013-01-31 14:52:00,
2013-01-31 08:03:00,24.0,17.0,30.03,South,182,9.0,19.0,73,0.00,,,0.00,,2013-01-31 15:03:00,
2013-01-31 08:12:00,24.0,16.0,30.05,SSW,193,8.0,17.0,72,0.00,,,0.00,,2013-01-31 15:12:00,
2013-01-31 08:22:00,24.0,16.0,30.05,SSW,193,8.0,17.0,72,0.00,,,0.00,,2013-01-31 15:22:00,
2013-01-31 08:32:00,25.0,17.0,30.06,ESE,119,5.0,13.0,70,0.00,,,0.00,,2013-01-31 15:32:00,
2013-01-31 08:42:00,25.0,17.0,30.06,ESE,119,5.0,13.0,70,0.00,,,0.00,,2013-01-31 15:42:00,
2013-01-31 08:52:00,25.0,16.0,30.08,West,275,5.0,18.0,69,0.00,,,0.00,,2013-01-31 15:52:00,
2013-01-31 09:03:00,25.0,16.0,30.08,WSW,257,8.0,21.0,68,0.00,,,0.00,,2013-01-31 16:03:00,
2013-01-31 09:12:00,26.0,17.0,30.09,SW,225,0.0,12.0,67,0.00,,,0.00,,2013-01-31 16:12:00,
2013-01-31 09:21:00,26.0,17.0,30.09,SW,225,0.0,12.0,67,0.00,,,0.00,,2013-01-31 16:21:00,
2013-01-31 09:32:00,26.0,16.0,30.09,SSW,210,1.0,21.0,66,0.00,,,0.00,,2013-01-31 16:32:00,
2013-01-31 09:42:00,26.0,16.0,30.09,SSW,210,1.0,21.0,66,0.00,,,0.00,,2013-01-31 16:42:00,
2013-01-31 09:52:00,27.0,16.0,30.10,ENE,69,3.0,17.0,64,0.00,,,0.00,,2013-01-31 16:52:00,
2013-01-31 10:02:00,27.0,16.0,30.10,West,270,0.0,7.0,63,0.00,,,0.00,,2013-01-31 17:02:00,
2013-01-31 10:12:00,27.0,16.0,30.10,West,270,0.0,7.0,63,0.00,,,0.00,,2013-01-31 17:12:00,
2013-01-31 10:23:00,28.0,17.0,30.11,SW,226,0.0,0.0,62,0.00,,,0.00,,2013-01-31 17:23:00,
2013-01-31 10:32:00,28.0,17.0,30.11,SW,224,1.0,11.0,62,0.00,,,0.00,,2013-01-31 17:32:00,
2013-01-31 10:43:00,28.0,17.0,30.11,SW,224,1.0,11.0,62,0.00,,,0.00,,2013-01-31 17:43:00,
2013-01-31 10:53:00,28.0,17.0,30.11,WSW,252,0.0,10.0,62,0.00,,,0.00,,2013-01-31 17:53:00,
2013-01-31 11:02:00,28.0,17.0,30.11,NW,313,0.0,7.0,62,0.00,,,0.00,,2013-01-31 18:02:00,
2013-01-31 11:12:00,29.0,17.0,30.12,WNW,287,0.0,0.0,61,0.00,,,0.00,,2013-01-31 18:12:00,
2013-01-31 11:22:00,29.0,17.0,30.12,WNW,287,0.0,0.0,61,0.00,,,0.00,,2013-01-31 18:22:00,
2013-01-31 11:32:00,29.0,16.0,30.11,ESE,111,0.0,0.0,59,0.00,,,0.00,,2013-01-31 18:32:00,
2013-01-31 11:43:00,29.0,16.0,30.11,ESE,111,0.0,0.0,59,0.00,,,0.00,,2013-01-31 18:43:00,
2013-01-31 11:52:00,29.0,17.0,30.11,West,275,0.0,0.0,60,0.00,,,0.00,,2013-01-31 18:52:00,
2013-01-31 12:02:00,29.0,16.0,30.10,WSW,250,0.0,0.0,58,0.00,,,0.00,,2013-01-31 19:02:00,
2013-01-31 12:12:00,29.0,16.0,30.10,WSW,250,0.0,0.0,58,0.00,,,0.00,,2013-01-31 19:12:00,
2013-01-31 12:21:00,29.0,16.0,30.11,ENE,65,0.0,15.0,59,0.00,,,0.00,,2013-01-31 19:21:00,
2013-01-31 12:32:00,29.0,17.0,30.10,NW,304,8.0,16.0,60,0.00,,,0.00,,2013-01-31 19:32:00,
2013-01-31 12:42:00,29.0,17.0,30.10,NW,304,8.0,16.0,60,0.00,,,0.00,,2013-01-31 19:42:00,
2013-01-31 12:52:00,30.0,18.0,30.09,East,96,8.0,16.0,60,0.00,,,0.00,,2013-01-31 19:52:00,
2013-01-31 13:02:00,29.0,18.0,30.09,WSW,248,7.0,27.0,62,0.00,,,0.00,,2013-01-31 20:02:00,
2013-01-31 13:11:00,30.0,17.0,30.09,NNW,344,15.0,28.0,58,0.00,,,0.00,,2013-01-31 20:11:00,
2013-01-31 13:21:00,30.0,17.0,30.09,NNW,344,15.0,28.0,58,0.00,,,0.00,,2013-01-31 20:21:00,
2013-01-31 13:31:00,30.0,17.0,30.08,SSE,160,2.0,24.0,58,0.00,,,0.00,,2013-01-31 20:31:00,
2013-01-31 13:42:00,30.0,17.0,30.08,West,273,6.0,27.0,57,0.01,,,0.01,,2013-01-31 20:42:00,
2013-01-31 13:52:00,30.0,17.0,30.08,West,273,6.0,27.0,57,0.01,,,0.01,,2013-01-31 20:52:00,
2013-01-31 14:02:00,30.0,17.0,30.08,NNW,329,5.0,19.0,58,0.01,,,0.01,,2013-01-31 21:02:00,
2013-01-31 14:12:00,30.0,17.0,30.09,WNW,290,0.0,4.0,57,0.01,,,0.01,,2013-01-31 21:12:00,
2013-01-31 14:21:00,30.0,17.0,30.09,WNW,290,0.0,4.0,57,0.01,,,0.01,,2013-01-31 21:21:00,
2013-01-31 14:31:00,31.0,18.0,30.07,WNW,283,4.0,31.0,57,0.01,,,0.01,,2013-01-31 21:31:00,
2013-01-31 14:42:00,31.0,18.0,30.07,WNW,283,4.0,31.0,57,0.01,,,0.01,,2013-01-31 21:42:00,
2013-01-31 14:52:00,31.0,16.0,30.06,NW,309,1.0,6.0,54,0.00,,,0.01,,2013-01-31 21:52:00,
2013-01-31 15:02:00,31.0,17.0,30.07,NW,311,0.0,5.0,56,0.00,,,0.01,,2013-01-31 22:02:00,
2013-01-31 15:11:00,30.0,16.0,30.08,WNW,301,0.0,4.0,55,0.00,,,0.01,,2013-01-31 22:11:00,
2013-01-31 15:22:00,30.0,16.0,30.08,WNW,301,0.0,4.0,55,0.00,,,0.01,,2013-01-31 22:22:00,
2013-01-31 15:32:00,30.0,16.0,30.10,South,175,5.0,15.0,55,0.00,,,0.01,,2013-01-31 22:32:00,
2013-01-31 15:42:00,30.0,16.0,30.10,South,175,5.0,15.0,55,0.00,,,0.01,,2013-01-31 22:42:00,
2013-01-31 15:52:00,31.0,18.0,30.11,ENE,76,7.0,15.0,57,0.00,,,0.01,,2013-01-31 22:52:00,
2013-01-31 16:02:00,32.0,18.0,30.11,ESE,123,2.0,6.0,56,0.00,,,0.01,,2013-01-31 23:02:00,
2013-01-31 16:12:00,32.0,18.0,30.11,ESE,123,2.0,6.0,56,0.00,,,0.01,,2013-01-31 23:12:00,
2013-01-31 16:22:00,32.0,18.0,30.11,ESE,123,2.0,6.0,56,0.00,,,0.01,,2013-01-31 23:22:00,
2013-01-31 16:31:00,30.0,18.0,30.12,SSW,209,3.0,10.0,60,0.00,,,0.01,,2013-01-31 23:31:00,
2013-01-31 16:42:00,30.0,18.0,30.12,SSW,209,3.0,10.0,60,0.00,,,0.01,,2013-01-31 23:42:00,
2013-01-31 16:52:00,29.0,17.0,30.12,SSW,195,7.0,15.0,60,0.00,,,0.01,,2013-01-31 23:52:00,
2013-01-31 17:01:00,29.0,17.0,30.12,SSE,167,1.0,10.0,60,0.00,,,0.01,,2013-02-01 00:01:00,
2013-01-31 17:11:00,29.0,17.0,30.12,SSE,167,1.0,10.0,60,0.00,,,0.01,,2013-02-01 00:11:00,
2013-01-31 17:22:00,28.0,16.0,30.13,SSW,211,5.0,12.0,60,0.00,,,0.01,,2013-02-01 00:22:00,
2013-01-31 17:31:00,28.0,16.0,30.14,South,184,5.0,18.0,60,0.00,,,0.01,,2013-02-01 00:31:00,
2013-01-31 17:42:00,28.0,16.0,30.14,South,184,5.0,18.0,60,0.00,,,0.01,,2013-02-01 00:42:00,
2013-01-31 17:52:00,27.0,15.0,30.14,SSW,208,4.0,7.0,61,0.00,,,0.01,,2013-02-01 00:52:00,
2013-01-31 18:01:00,26.0,15.0,30.14,WSW,240,4.0,9.0,62,0.00,,,0.01,,2013-02-01 01:01:00,
2013-01-31 18:11:00,25.0,14.0,30.14,WSW,248,7.0,12.0,63,0.00,,,0.01,,2013-02-01 01:11:00,
2013-01-31 18:21:00,25.0,14.0,30.14,WSW,248,7.0,12.0,63,0.00,,,0.01,,2013-02-01 01:21:00,
2013-01-31 18:31:00,26.0,15.0,30.15,West,276,8.0,15.0,62,0.00,,,0.01,,2013-02-01 01:31:00,
2013-01-31 18:42:00,26.0,15.0,30.15,West,276,8.0,15.0,62,0.00,,,0.01,,2013-02-01 01:42:00,
2013-01-31 18:52:00,26.0,15.0,30.15,West,259,9.0,14.0,62,0.00,,,0.01,,2013-02-01 01:52:00,
2013-01-31 19:01:00,26.0,15.0,30.15,West,269,7.0,16.0,62,0.00,,,0.01,,2013-02-01 02:01:00,
2013-01-31 19:11:00,26.0,15.0,30.15,West,269,7.0,16.0,62,0.00,,,0.01,,2013-02-01 02:11:00,
2013-01-31 19:21:00,26.0,15.0,30.15,SSW,206,9.0,18.0,62,0.00,,,0.01,,2013-02-01 02:21:00,
2013-01-31 19:31:00,26.0,15.0,30.15,West,267,13.0,19.0,63,0.00,,,0.01,,2013-02-01 02:31:00,
2013-01-31 19:41:00,26.0,15.0,30.15,West,267,13.0,19.0,63,0.00,,,0.01,,2013-02-01 02:41:00,
2013-01-31 19:52:00,26.0,15.0,30.16,SSW,204,11.0,18.0,63,0.00,,,0.01,,2013-02-01 02:52:00,
2013-01-31 20:01:00,26.0,16.0,30.16,WSW,252,9.0,22.0,64,0.00,,,0.01,,2013-02-01 03:01:00,
2013-01-31 20:12:00,26.0,16.0,30.16,WSW,252,9.0,22.0,64,0.00,,,0.01,,2013-02-01 03:12:00,
2013-01-31 20:21:00,25.0,14.0,30.16,WSW,247,10.0,14.0,63,0.00,,,0.01,,2013-02-01 03:21:00,
2013-01-31 20:32:00,25.0,15.0,30.17,South,187,9.0,14.0,64,0.00,,,0.01,,2013-02-01 03:32:00,
2013-01-31 20:41:00,25.0,15.0,30.17,South,187,9.0,14.0,64,0.00,,,0.01,,2013-02-01 03:41:00,
2013-01-31 20:52:00,25.0,15.0,30.17,SW,221,8.0,16.0,65,0.00,,,0.01,,2013-02-01 03:52:00,
2013-01-31 21:02:00,25.0,16.0,30.16,SSW,210,12.0,18.0,67,0.00,,,0.01,,2013-02-01 04:02:00,
2013-01-31 21:11:00,25.0,15.0,30.16,SSW,198,10.0,20.0,66,0.00,,,0.01,,2013-02-01 04:11:00,
2013-01-31 21:21:00,25.0,15.0,30.16,SSW,198,10.0,20.0,66,0.00,,,0.01,,2013-02-01 04:21:00,
2013-01-31 21:31:00,25.0,15.0,30.16,WSW,239,10.0,19.0,66,0.00,,,0.01,,2013-02-01 04:31:00,
2013-01-31 21:41:00,25.0,15.0,30.16,WSW,239,10.0,19.0,66,0.00,,,0.01,,2013-02-01 04:41:00,
2013-01-31 21:52:00,25.0,15.0,30.16,SW,225,12.0,17.0,65,0.00,,,0.01,,2013-02-01 04:52:00,
2013-01-31 22:03:00,26.0,16.0,30.14,SW,233,12.0,23.0,64,0.00,,,0.01,,2013-02-01 05:03:00,
2013-01-31 22:11:00,26.0,16.0,30.14,SW,233,12.0,23.0,64,0.00,,,0.01,,2013-02-01 05:11:00,
2013-01-31 22:22:00,26.0,15.0,30.14,SW,225,15.0,35.0,63,0.00,,,0.01,,2013-02-01 05:22:00,
2013-01-31 22:32:00,26.0,16.0,30.13,SW,234,13.0,20.0,65,0.00,,,0.01,,2013-02-01 05:32:00,
2013-01-31 22:41:00,26.0,16.0,30.13,SW,234,13.0,20.0,65,0.00,,,0.01,,2013-02-01 05:41:00,
2013-01-31 22:52:00,25.0,15.0,30.14,SW,223,12.0,18.0,66,0.00,,,0.01,,2013-02-01 05:52:00,
2013-01-31 23:02:00,25.0,15.0,30.14,WSW,256,15.0,23.0,66,0.00,,,0.01,,2013-02-01 06:02:00,
2013-01-31 23:11:00,25.0,15.0,30.14,WSW,256,15.0,23.0,66,0.00,,,0.01,,2013-02-01 06:11:00,
2013-01-31 23:22:00,26.0,16.0,30.16,SW,229,13.0,19.0,66,0.00,,,0.01,,2013-02-01 06:22:00,
2013-01-31 23:32:00,26.0,16.0,30.16,SW,229,13.0,19.0,66,0.00,,,0.01,,2013-02-01 06:32:00,
2013-01-31 23:42:00,26.0,16.0,30.16,SW,229,13.0,19.0,66,0.00,,,0.01,,2013-02-01 06:42:00,
2013-01-31 23:52:00,26.0,17.0,30.15,SW,225,9.0,20.0,67,0.00,,,0.01,,2013-02-01 06:52:00,